EVA186 RCTP-ROAH

Flight info

Callsign EVA186
Flight time 0h 56m
Altitude 33000
Route KUDOS1A KUDOS R595 SEDKU Y573 MJC Y57 VELNO VELNOS
Aircraft B77W/H-SDE1E2E3FGHIJ2J3J4J5M1RWXY/LB1D1

Departure

Time 2026-05-08 11:31
Airport Taiwan Taoyuan International Airport (RCTP)

Arrival

Time 2026-05-08 12:28
Airport Naha International Airport (ROAH)
Time Latitude Longitude Altitude Speed Heading
2026-05-08 10:47 25.07686 121.23553 106 ft 0 kts 319°
2026-05-08 11:21 25.07681 121.23558 104 ft 4 kts 319°
2026-05-08 11:22 25.07661 121.23578 104 ft 4 kts 319°
2026-05-08 11:22 25.07640 121.23597 104 ft 4 kts 319°
2026-05-08 11:22 25.07619 121.23617 104 ft 4 kts 319°
2026-05-08 11:22 25.07606 121.23630 104 ft 4 kts 277°
2026-05-08 11:23 25.07613 121.23651 104 ft 3 kts 229°
2026-05-08 11:23 25.07630 121.23673 107 ft 4 kts 229°
2026-05-08 11:23 25.07637 121.23682 105 ft 0 kts 229°
2026-05-08 11:25 25.07602 121.23636 107 ft 16 kts 229°
2026-05-08 11:26 25.07525 121.23537 108 ft 17 kts 230°
2026-05-08 11:26 25.07448 121.23438 108 ft 17 kts 229°
2026-05-08 11:26 25.07370 121.23339 108 ft 17 kts 229°
2026-05-08 11:26 25.07293 121.23241 108 ft 17 kts 229°
2026-05-08 11:27 25.07193 121.23202 107 ft 17 kts 154°
2026-05-08 11:27 25.07093 121.23270 106 ft 17 kts 172°
2026-05-08 11:27 25.07000 121.23196 107 ft 17 kts 229°
2026-05-08 11:27 25.06921 121.23096 107 ft 17 kts 229°
2026-05-08 11:28 25.06843 121.22997 107 ft 17 kts 229°
2026-05-08 11:28 25.06764 121.22897 106 ft 17 kts 229°
2026-05-08 11:28 25.06685 121.22797 106 ft 17 kts 229°
2026-05-08 11:28 25.06607 121.22697 106 ft 17 kts 229°
2026-05-08 11:29 25.06528 121.22598 106 ft 17 kts 229°
2026-05-08 11:29 25.06450 121.22498 106 ft 17 kts 229°
2026-05-08 11:29 25.06371 121.22399 107 ft 17 kts 229°
2026-05-08 11:29 25.06293 121.22301 108 ft 17 kts 229°
2026-05-08 11:30 25.06193 121.22269 105 ft 17 kts 148°
2026-05-08 11:30 25.06118 121.22368 103 ft 17 kts 94°
2026-05-08 11:30 25.06181 121.22479 103 ft 17 kts 49°
2026-05-08 11:30 25.06290 121.22617 101 ft 34 kts 49°
2026-05-08 11:31 25.06573 121.22975 101 ft 96 kts 49°
2026-05-08 11:31 25.07146 121.23698 100 ft 152 kts 49°
2026-05-08 11:31 25.07886 121.24648 391 ft 174 kts 48°
2026-05-08 11:31 25.08680 121.25665 1105 ft 173 kts 50°
2026-05-08 11:32 25.09493 121.26729 1540 ft 193 kts 50°
2026-05-08 11:32 25.10421 121.27953 1786 ft 222 kts 51°
2026-05-08 11:32 25.11448 121.29306 2405 ft 234 kts 51°
2026-05-08 11:32 25.12569 121.30650 3188 ft 242 kts 49°
2026-05-08 11:33 25.13753 121.32000 3976 ft 247 kts 48°
2026-05-08 11:33 25.14961 121.33371 4787 ft 250 kts 48°
2026-05-08 11:33 25.16190 121.34773 5469 ft 260 kts 48°
2026-05-08 11:33 25.17481 121.36250 5982 ft 275 kts 48°
2026-05-08 11:34 25.18843 121.37813 6518 ft 289 kts 49°
2026-05-08 11:34 25.20253 121.39432 7195 ft 294 kts 48°
2026-05-08 11:34 25.21680 121.41073 7856 ft 300 kts 47°
2026-05-08 11:34 25.23133 121.42746 8583 ft 304 kts 46°
2026-05-08 11:35 25.24597 121.44431 9363 ft 307 kts 45°
2026-05-08 11:35 25.26082 121.46143 10085 ft 309 kts 45°
2026-05-08 11:35 25.27593 121.47884 10621 ft 321 kts 45°
2026-05-08 11:35 25.28977 121.49888 10815 ft 341 kts 66°
2026-05-08 11:36 25.29451 121.52513 11013 ft 363 kts 95°
2026-05-08 11:36 25.28959 121.55303 11231 ft 381 kts 109°
2026-05-08 11:36 25.28030 121.58053 11771 ft 391 kts 114°
2026-05-08 11:36 25.26950 121.60839 12517 ft 399 kts 115°
2026-05-08 11:37 25.25841 121.63674 13310 ft 405 kts 115°
2026-05-08 11:37 25.24743 121.66542 14218 ft 405 kts 114°
2026-05-08 11:37 25.23666 121.69440 14906 ft 413 kts 113°
2026-05-08 11:37 25.22588 121.72418 15566 ft 420 kts 113°
2026-05-08 11:38 25.21517 121.75421 16389 ft 423 kts 112°
2026-05-08 11:38 25.20436 121.78466 17048 ft 430 kts 113°
2026-05-08 11:38 25.19336 121.81566 17663 ft 437 kts 112°
2026-05-08 11:38 25.18220 121.84714 18376 ft 442 kts 112°
2026-05-08 11:39 25.17091 121.87894 18922 ft 449 kts 112°
2026-05-08 11:39 25.15940 121.91130 19453 ft 454 kts 112°
2026-05-08 11:39 25.14784 121.94374 20192 ft 454 kts 112°
2026-05-08 11:39 25.13628 121.97620 20879 ft 456 kts 112°
2026-05-08 11:40 25.12736 122.00995 21427 ft 462 kts 98°
2026-05-08 11:40 25.12521 122.04555 21985 ft 467 kts 91°
2026-05-08 11:40 25.12399 122.08155 22482 ft 473 kts 94°
2026-05-08 11:40 25.12145 122.11798 22997 ft 478 kts 96°
2026-05-08 11:41 25.11820 122.15455 23598 ft 480 kts 97°
2026-05-08 11:41 25.11493 122.18942 24042 ft 484 kts 96°
2026-05-08 11:41 25.11153 122.22649 24473 ft 488 kts 96°
2026-05-08 11:41 25.10822 122.26396 24915 ft 492 kts 96°
2026-05-08 11:42 25.10495 122.30160 25356 ft 495 kts 96°
2026-05-08 11:42 25.10149 122.33954 25801 ft 499 kts 96°
2026-05-08 11:42 25.09788 122.37774 26227 ft 503 kts 96°
2026-05-08 11:42 25.09417 122.41621 26633 ft 507 kts 96°
2026-05-08 11:43 25.09041 122.45506 27042 ft 511 kts 96°
2026-05-08 11:43 25.08662 122.49414 27483 ft 514 kts 96°
2026-05-08 11:43 25.08282 122.53334 28034 ft 514 kts 96°
2026-05-08 11:43 25.07907 122.57202 28659 ft 513 kts 96°
2026-05-08 11:44 25.07526 122.61123 29099 ft 517 kts 96°
2026-05-08 11:44 25.06759 122.69010 29049 ft 513 kts 96°
2026-05-08 11:45 25.05995 122.76806 29044 ft 511 kts 96°
2026-05-08 11:45 25.05229 122.84593 29054 ft 511 kts 96°
2026-05-08 11:46 25.04457 122.92394 29052 ft 512 kts 96°
2026-05-08 11:46 25.03680 123.00202 29044 ft 513 kts 96°
2026-05-08 11:47 25.02875 123.08018 29041 ft 513 kts 96°
2026-05-08 11:47 25.02057 123.15832 29035 ft 513 kts 96°
2026-05-08 11:48 25.01249 123.23644 29046 ft 512 kts 96°
2026-05-08 11:48 25.00462 123.31394 29035 ft 512 kts 96°
2026-05-08 11:49 24.99664 123.39234 29035 ft 511 kts 96°
2026-05-08 11:49 24.98869 123.46962 29040 ft 511 kts 96°
2026-05-08 11:50 24.98064 123.54738 29036 ft 511 kts 96°
2026-05-08 11:50 24.97321 123.61881 29034 ft 510 kts 96°
2026-05-08 11:51 24.96509 123.69652 29029 ft 511 kts 96°
2026-05-08 11:51 24.95694 123.77422 29033 ft 510 kts 96°
2026-05-08 11:52 24.94874 123.85186 29037 ft 511 kts 97°
2026-05-08 11:52 24.94050 123.92957 29031 ft 511 kts 97°
2026-05-08 11:53 24.93221 124.00730 29025 ft 510 kts 97°
2026-05-08 11:53 24.92340 124.08474 29030 ft 510 kts 97°
2026-05-08 11:54 24.91434 124.16161 29028 ft 509 kts 97°
2026-05-08 11:54 24.90524 124.23894 29025 ft 509 kts 97°
2026-05-08 11:55 24.89618 124.31622 29027 ft 508 kts 97°
2026-05-08 11:55 24.88711 124.39338 29021 ft 508 kts 97°
2026-05-08 11:56 24.87799 124.47053 29014 ft 508 kts 97°
2026-05-08 11:56 24.86883 124.54766 29011 ft 508 kts 98°
2026-05-08 11:57 24.85964 124.62473 29008 ft 508 kts 98°
2026-05-08 11:57 24.85041 124.70177 29022 ft 508 kts 98°
2026-05-08 11:58 24.84114 124.77879 29017 ft 507 kts 98°
2026-05-08 11:58 24.83184 124.85580 29010 ft 507 kts 98°
2026-05-08 11:59 24.81756 124.97124 29001 ft 507 kts 98°
2026-05-08 11:59 24.80790 125.04811 28994 ft 507 kts 98°
2026-05-08 12:00 24.79823 125.12499 28993 ft 507 kts 98°
2026-05-08 12:00 24.78855 125.20188 28996 ft 507 kts 98°
2026-05-08 12:01 24.78521 125.27890 28989 ft 505 kts 80°
2026-05-08 12:01 24.79349 125.31631 28999 ft 503 kts 69°
2026-05-08 12:01 24.80781 125.35122 29005 ft 498 kts 56°
2026-05-08 12:02 24.84497 125.41497 29006 ft 500 kts 54°
2026-05-08 12:02 24.88288 125.47995 29010 ft 503 kts 55°
2026-05-08 12:03 24.92020 125.54528 29011 ft 504 kts 55°
2026-05-08 12:03 24.95727 125.61090 29019 ft 505 kts 55°
2026-05-08 12:04 24.99428 125.67659 29031 ft 504 kts 55°
2026-05-08 12:04 25.03096 125.74169 29018 ft 503 kts 55°
2026-05-08 12:05 25.06778 125.80709 29029 ft 501 kts 55°
2026-05-08 12:05 25.10447 125.87236 29028 ft 500 kts 55°
2026-05-08 12:06 25.14085 125.93717 29013 ft 488 kts 55°
2026-05-08 12:06 25.15845 125.96860 28974 ft 476 kts 55°
2026-05-08 12:06 25.17579 125.99958 28512 ft 473 kts 55°
2026-05-08 12:07 25.19302 126.03033 28060 ft 469 kts 55°
2026-05-08 12:07 25.21007 126.06077 27617 ft 465 kts 55°
2026-05-08 12:07 25.22700 126.09100 27179 ft 461 kts 56°
2026-05-08 12:07 25.24377 126.12099 26737 ft 457 kts 56°
2026-05-08 12:08 25.26041 126.15077 26312 ft 454 kts 56°
2026-05-08 12:08 25.27693 126.18035 25871 ft 451 kts 56°
2026-05-08 12:08 25.29336 126.20979 25432 ft 448 kts 56°
2026-05-08 12:08 25.30967 126.23904 24984 ft 446 kts 56°
2026-05-08 12:09 25.32593 126.26821 24556 ft 444 kts 56°
2026-05-08 12:09 25.34210 126.29724 24113 ft 443 kts 56°
2026-05-08 12:09 25.35821 126.32618 23675 ft 441 kts 56°
2026-05-08 12:09 25.37427 126.35504 23158 ft 440 kts 56°
2026-05-08 12:10 25.39022 126.38374 22713 ft 436 kts 56°
2026-05-08 12:10 25.40605 126.41224 22267 ft 433 kts 56°
2026-05-08 12:10 25.42176 126.44055 21837 ft 430 kts 56°
2026-05-08 12:10 25.43735 126.46864 21392 ft 427 kts 56°
2026-05-08 12:11 25.45281 126.49652 20979 ft 424 kts 56°
2026-05-08 12:11 25.46821 126.52430 20564 ft 421 kts 56°
2026-05-08 12:11 25.48347 126.55187 20134 ft 419 kts 56°
2026-05-08 12:11 25.49860 126.57936 19701 ft 417 kts 56°
2026-05-08 12:12 25.51363 126.60673 19286 ft 416 kts 56°
2026-05-08 12:12 25.52860 126.63405 18857 ft 414 kts 56°
2026-05-08 12:12 25.54331 126.66092 18428 ft 413 kts 57°
2026-05-08 12:12 25.55817 126.68804 17966 ft 411 kts 57°
2026-05-08 12:13 25.57295 126.71502 17510 ft 408 kts 56°
2026-05-08 12:13 25.58782 126.74219 17074 ft 406 kts 57°
2026-05-08 12:13 25.60219 126.76848 16655 ft 403 kts 57°
2026-05-08 12:13 25.61666 126.79495 16237 ft 400 kts 57°
2026-05-08 12:14 25.62637 126.81272 15934 ft 399 kts 57°
2026-05-08 12:14 25.64532 126.84741 15395 ft 396 kts 57°
2026-05-08 12:14 25.65952 126.87341 14993 ft 394 kts 56°
2026-05-08 12:14 25.67366 126.89934 14577 ft 392 kts 57°
2026-05-08 12:15 25.68773 126.92513 14161 ft 391 kts 57°
2026-05-08 12:15 25.70177 126.95091 13717 ft 390 kts 57°
2026-05-08 12:15 25.71120 126.96822 13414 ft 388 kts 57°
2026-05-08 12:15 25.72514 126.99382 12980 ft 386 kts 57°
2026-05-08 12:16 25.73897 127.01924 12566 ft 384 kts 57°
2026-05-08 12:16 25.75271 127.04451 12153 ft 381 kts 57°
2026-05-08 12:16 25.76636 127.06964 11748 ft 379 kts 57°
2026-05-08 12:16 25.77991 127.09459 11348 ft 377 kts 57°
2026-05-08 12:17 25.79340 127.11945 10948 ft 375 kts 58°
2026-05-08 12:17 25.80682 127.14421 10638 ft 371 kts 58°
2026-05-08 12:17 25.81975 127.16805 10483 ft 361 kts 58°
2026-05-08 12:17 25.83254 127.19167 10312 ft 353 kts 58°
2026-05-08 12:18 25.84502 127.21472 10174 ft 344 kts 58°
2026-05-08 12:18 25.85721 127.23724 9977 ft 338 kts 59°
2026-05-08 12:18 25.86920 127.25938 9738 ft 332 kts 59°
2026-05-08 12:18 25.88100 127.28120 9540 ft 325 kts 59°
2026-05-08 12:19 25.89248 127.30246 9340 ft 318 kts 59°
2026-05-08 12:19 25.90158 127.32508 8672 ft 324 kts 74°
2026-05-08 12:19 25.90740 127.34908 8429 ft 319 kts 78°
2026-05-08 12:19 25.91239 127.37281 8250 ft 311 kts 79°
2026-05-08 12:20 25.91733 127.39623 7802 ft 315 kts 78°
2026-05-08 12:20 25.92251 127.41984 7509 ft 312 kts 77°
2026-05-08 12:20 25.92775 127.44304 7259 ft 308 kts 78°
2026-05-08 12:20 25.93299 127.46581 7033 ft 303 kts 77°
2026-05-08 12:21 25.93816 127.48814 6856 ft 295 kts 78°
2026-05-08 12:21 25.94331 127.51024 6570 ft 293 kts 77°
2026-05-08 12:21 25.94841 127.53198 6314 ft 291 kts 78°
2026-05-08 12:21 25.95348 127.55362 6080 ft 286 kts 77°
2026-05-08 12:22 25.95844 127.57484 5742 ft 286 kts 78°
2026-05-08 12:22 25.96195 127.59560 5446 ft 274 kts 94°
2026-05-08 12:22 25.95852 127.61557 5201 ft 258 kts 110°
2026-05-08 12:22 25.95597 127.63520 4708 ft 262 kts 79°
2026-05-08 12:23 25.96394 127.65246 4228 ft 256 kts 45°
2026-05-08 12:23 25.97945 127.66141 3906 ft 257 kts 15°
2026-05-08 12:23 25.99743 127.66108 3581 ft 262 kts 353°
2026-05-08 12:23 26.01549 127.65769 3231 ft 264 kts 356°
2026-05-08 12:24 26.03364 127.65550 2879 ft 258 kts
2026-05-08 12:24 26.05092 127.65448 2535 ft 239 kts
2026-05-08 12:24 26.06694 127.65365 2253 ft 219 kts
2026-05-08 12:24 26.08128 127.65279 2004 ft 194 kts
2026-05-08 12:25 26.09403 127.65204 1716 ft 174 kts
2026-05-08 12:25 26.10528 127.65137 1498 ft 151 kts
2026-05-08 12:25 26.11524 127.65080 1314 ft 141 kts
2026-05-08 12:25 26.12510 127.65023 1134 ft 142 kts
2026-05-08 12:26 26.13492 127.64964 957 ft 140 kts
2026-05-08 12:26 26.14442 127.64906 753 ft 133 kts
2026-05-08 12:26 26.15372 127.64852 609 ft 137 kts 358°
2026-05-08 12:26 26.16317 127.64797 422 ft 135 kts 359°
2026-05-08 12:27 26.17256 127.64737 263 ft 135 kts 359°
2026-05-08 12:27 26.18211 127.64659 90 ft 140 kts
2026-05-08 12:27 26.19152 127.64618 29 ft 125 kts 358°
2026-05-08 12:27 26.19870 127.64581 28 ft 81 kts 358°
2026-05-08 12:28 26.20282 127.64563 28 ft 37 kts 357°
2026-05-08 12:28 26.20465 127.64556 29 ft 25 kts 359°
2026-05-08 12:28 26.20610 127.64581 29 ft 10 kts 51°
2026-05-08 12:28 26.20625 127.64655 28 ft 10 kts 86°
2026-05-08 12:29 26.20630 127.64732 27 ft 10 kts 86°
2026-05-08 12:29 26.20633 127.64810 27 ft 10 kts 88°
2026-05-08 12:29 26.20635 127.64872 27 ft 6 kts 82°
2026-05-08 12:29 26.20663 127.64906 27 ft 6 kts 28°
2026-05-08 12:30 26.20703 127.64923 27 ft 5 kts 26°